This is the latest recevied weather packets stored in our database for station/object W4TTU-1. If no packets are shown the sender has not sent any weather packets the latest 1 day(s).
| Time | Temp. | Humidity | Pressure | Rain* | Wind** | Luminosity | Snow |
|---|---|---|---|---|---|---|---|
| 1778051034 | -1.11° C | 33% | 849.8 hPa | 0 mm | 0.45 m/s, 270° | - | - |
| 1778050133 | -0.56° C | 33% | 849.8 hPa | 0 mm | 0 m/s | - | - |
| 1778049233 | 0° C | 33% | 849.8 hPa | 0 mm | 0 m/s | - | - |
| 1778048332 | 0° C | 32% | 849.6 hPa | 0 mm | 0 m/s | - | - |
| 1778047432 | 0.56° C | 33% | 849.7 hPa | 0 mm | 0 m/s | - | - |
| 1778045633 | 1.67° C | 32% | 849.5 hPa | 0 mm | 0 m/s | - | - |
| 1778044730 | 2.22° C | 33% | 849.4 hPa | 0 mm | 0 m/s | - | - |
| 1778043830 | 2.78° C | 32% | 849.3 hPa | 0 mm | 0 m/s | - | - |
| 1778042929 | 3.33° C | 32% | 849.4 hPa | 0 mm | 0 m/s | - | - |
| 1778042029 | 3.89° C | 32% | 849.4 hPa | 0 mm | 0.45 m/s, 270° | - | - |
| 1778041128 | 4.44° C | 33% | 849.2 hPa | 0 mm | 0.45 m/s, 270° | - | - |
| 1778040228 | 4.44° C | 32% | 849 hPa | 0 mm | 0 m/s | - | - |
| 1778039327 | 5° C | 32% | 849 hPa | 0 mm | 0.45 m/s, 270° | - | - |
| 1778038426 | 5.56° C | 32% | 848.9 hPa | 0 mm | 2.68 m/s, 270° | - | - |
| 1778037526 | 5.56° C | 31% | 848.7 hPa | 0 mm | 1.79 m/s, 270° | - | - |
| 1778036626 | 6.11° C | 31% | 848.5 hPa | 0 mm | 3.13 m/s, 270° | - | - |
| 1778035725 | 6.67° C | 31% | 848.2 hPa | 0 mm | 2.24 m/s, 270° | - | - |
| 1778034824 | 7.22° C | 31% | 847.9 hPa | 0 mm | 1.79 m/s, 270° | - | - |
| 1778033924 | 7.78° C | 31% | 847.5 hPa | 0 mm | 0.89 m/s, 270° | - | - |
| 1778033023 | 8.33° C | 31% | 847.2 hPa | 0 mm | 0.89 m/s, 270° | - | - |
| 1778032123 | 8.33° C | 31% | 846.9 hPa | 0 mm | 0.89 m/s, 270° | - | - |
| 1778031222 | 8.89° C | 32% | 847 hPa | 0 mm | 0.45 m/s, 270° | - | - |
| 1778030322 | 9.44° C | 31% | 846.8 hPa | 0 mm | 1.79 m/s, 270° | - | - |
| 1778029421 | 9.44° C | 31% | 846.7 hPa | 0 mm | 0.45 m/s, 270° | - | - |
| 1778028521 | 9.44° C | 32% | 846.6 hPa | 0 mm | 1.34 m/s, 270° | - | - |
* Rain since midnight (hover to see other rain measurements)
** Current wind speed in m/s (hover to see current wind gust speed)